STARLINK AR

Last updated on June 19, 2020, 12:02 a.m. UTC

1 45769U 20038AR  20170.75001157  .03351377  11475-1  76802-2 0  9993
2 45769  53.0008 271.8599 0094473  67.8527 136.5116 15.91444201  2132

Satellite is not in orbit.